Tracking 20041 objects as of 22-Nov-2019
Live streaming from Space Station
objects crossing your sky now

COSMOS 1275 DEB

Track COSMOS 1275 DEB now!
10-day predictions


NORAD ID: 42187
Int'l Code: 1981-053TB
Perigee: 876.5 km
Apogee: 968.2 km
Inclination: 83.0 °
Period: 103.3 minutes
Semi major axis: 7293 km
RCS: Unknown
Launch date: June 4, 1981
Source: Commonwealth of Independent States (former USSR) (CIS)
Launch site: PLESETSK MISSILE AND SPACE COMPLEX (PKMTR)

Note: This is SATELLITE DEBRIS
aabbcc
Your satellite tracking list
Your tracking list is empty




NASA's NSSDC Master Catalog

Two Line Element Set (TLE):
1 42187U 81053TB  19325.39934154 +.00000700 +00000-0 +51041-3 0  9998
2 42187 082.9712 201.4161 0062879 119.0495 241.6991 13.93847453304724
Source of the keplerian elements: AFSPC